Location: Unnamed
(48.6007°N, 2.4808°E)
Time: 00:59:33
(UTC+01:00)

FENGYUN 1C DEB - Pass Details

Date: 01 December 2023
Orbit: 754 x 826 km, 99.0° (Epoch: 26 February)

Event Time Altitude Azimuth Distance (km) Brightness Sun altitude
Rises 17:54:34 0° 15° (NNE) 3,300 ? -9.2°
Reaches altitude 10° 17:56:52 10° 15° (NNE) 2,379 ? -9.6°
Maximum altitude 18:02:09 89° 298° (WNW) 817 ? -10.4°
Drops below altitude 10° 18:07:31 10° 197° (SSW) 2,414 ? -11.2°
Sets 18:09:52 0° 198° (SSW) 3,352 ? -11.6°
